AO-07 1 07530U 74089B 19065.87282270 -.00000051 00000-0 -38356-4 0 9997 2 07530 101.7308 34.6540 0012032 186.1476 188.7441 12.53636981 27512 UO-11 1 14781U 84021B 19066.06810873 .00000062 00000-0 13819-4 0 9995 2 14781 97.6220 95.6266 0007200 306.0959 53.9589 14.83067555883400 LO-19 1 20442U 90005G 19065.76610653 -.00000015 00000-0 10702-4 0 9992 2 20442 098.6390 007.9992 0012899 095.1414 265.1243 14.32918712521434 HUBBLE 1 20580U 90037B 19067.03230324 .00000442 00000-0 15996-4 0 9998 2 20580 28.4687 170.7486 0002902 98.1066 237.0987 15.09183506385367 MET-2/21 1 22782U 93055A 19066.00096108 .00000018 00000-0 30330-5 0 9992 2 22782 82.5461 245.3457 0023457 108.5236 4.2616 13.83815725288522 AO-27 1 22825U 93061C 19066.50867497 -.00000021 00000-0 10057-4 0 9997 2 22825 98.8956 52.8328 0007516 304.0555 55.9912 14.30052587327205 IO-26 1 22826U 93061D 19066.95406306 -.00000012 00000-0 13323-4 0 9994 2 22826 98.8897 53.2921 0007917 289.9689 70.0640 14.30385702327460 FO-29 1 24278U 96046B 19066.17660544 -.00000049 00000-0 -16175-4 0 9992 2 24278 98.5209 233.7097 0350969 148.3841 213.8913 13.53089434113800 NOAA-15 1 25338U 98030A 19066.54626510 .00000017 00000-0 26053-4 0 9990 2 25338 98.7559 87.9516 0010576 177.0412 183.0831 14.25897061 82550 GO-32 1 25397U 98043D 19066.09550912 -.00000024 00000-0 86302-5 0 9994 2 25397 98.6795 7.5503 0001397 27.5930 332.5323 14.23661141 73132 ISS 1 25544U 98067A 19067.03008102 .00002127 00000-0 41212-4 0 9993 2 25544 51.6421 144.1595 0004004 88.9784 274.4814 15.52790835159541 NO-44 1 26931U 01043C 19067.00598651 -.00000041 00000-0 16080-4 0 9991 2 26931 67.0496 268.6575 0005355 273.4878 86.5610 14.30534339910282 SO-50 1 27607U 02058C 19066.93472541 -.00000033 00000-0 16348-4 0 9997 2 27607 64.5566 3.7569 0082296 276.0791 83.0939 14.75525082871877 CO-55 1 27844U 03031E 19066.02046571 .00000042 00000-0 38833-4 0 9994 2 27844 98.6867 75.7709 0009290 337.3534 22.7232 14.22163283813556 CO-57 1 27848U 03031J 19066.54616994 .00000023 00000-0 30516-4 0 9996 2 27848 98.6947 76.7649 0009365 347.4703 12.6240 14.21760488813484 RS-22 1 27939U 03042A 19066.56169148 .00000092 00000-0 25002-4 0 9995 2 27939 98.0216 204.4931 0013659 40.7993 319.4234 14.66758959825424 NOAA-18 1 28654U 05018A 19066.56446939 .00000064 00000-0 59803-4 0 9996 2 28654 99.1112 111.9166 0015263 107.4503 252.8338 14.12408052710963 CO-58 1 28895U 05043F 19065.86976102 .00000092 00000-0 26531-4 0 9996 2 28895 097.9411 212.2611 0015847 323.0672 036.9438 14.63635514712065 Falconsat-3 1 30776U 07006E 19066.98962791 .00002932 00000-0 83846-4 0 9998 2 30776 35.4365 25.9079 0003943 261.5268 98.5011 15.35698092664886 CO-65 1 32785U 08021C 19066.95340694 .00000180 00000-0 25085-4 0 9991 2 32785 97.5488 71.5232 0011731 240.5128 119.4920 14.88259159588406 AAUSAT2 1 32788U 08021F 19066.01722965 .00000400 00000-0 41883-4 0 9995 2 32788 97.5042 86.3027 0011774 180.0496 180.0726 14.94619762589433 DO-64 1 32789U 08021G 19066.95371043 .00001556 00000-0 10863-3 0 9992 2 32789 97.4781 119.6626 0013846 115.2635 245.0029 15.06698994591490 CO-66 1 32791U 08021J 19067.00971531 .00000172 00000-0 22867-4 0 9991 2 32791 97.5303 77.4279 0012468 214.3380 145.7034 14.90747102588818 RS-30 1 32953U 08025A 19066.54455717 .00000020 00000-0 75656-4 0 9992 2 32953 82.5038 208.8913 0018907 357.4608 2.6374 12.43088072489490 PRISM 1 33493U 09002B 19066.43136958 .00000536 00000-0 52631-4 0 9999 2 33493 98.1228 343.4772 0015507 160.8138 199.3670 14.96527502549700 NOAA-19 1 33591U 09005A 19066.54147118 .00000050 00000-0 52493-4 0 9990 2 33591 99.1734 55.2046 0013218 310.7427 49.2596 14.12337755519342 TISAT-1 1 36799U 10035E 19066.40421886 .00000308 00000-0 37260-4 0 9991 2 36799 98.1391 215.2300 0013483 68.0135 292.2513 14.91019102469373 JUGNU 1 37839U 11058B 19065.84345495 .00000295 00000-0 15137-4 0 9995 2 37839 19.9604 244.5243 0018908 262.4257 230.0434 14.12643031382553 SRMSAT 1 37841U 11058D 19066.94337544 .00000310 00000-0 24912-4 0 9995 2 37841 19.9721 292.5055 0011912 147.9354 330.8696 14.10625759382164 AO-71 1 37854U 11061E 19066.86841294 .00000734 00000-0 45660-4 0 9999 2 37854 101.7145 272.2146 0161590 11.1743 349.2989 15.06175154401511 HRBE 1 37855U 11061F 19066.17464413 .00000865 00000-0 51412-4 0 9995 2 37855 101.7276 268.5650 0174358 23.5600 337.3477 15.05175372401207 ALMASAT-1 1 38078U 12006B 19067.03186432 .00028859 40811-5 19784-3 0 9998 2 38078 69.4266 198.5929 0184644 61.9007 54.8565 15.55565854381480 HORYU-2 1 38340U 12025D 19066.10478448 .00000170 00000-0 32923-4 0 9997 2 38340 98.3422 101.5168 0012844 94.6181 265.6494 14.75675057365881 RS-40 1 38735U 12041C 19066.48555197 .00000015 00000-0 37054-4 0 9999 2 38735 82.4753 292.4455 0017760 98.6202 261.6893 12.42577663299734 BEESAT-3 1 39135U 13015F 19066.92496444 .00000838 00000-0 51723-4 0 9996 2 39135 64.8709 10.1944 0009809 287.9010 72.1046 15.17245135324653 BEESAT-2 1 39136U 13015G 19066.92402534 .00001109 00000-0 66228-4 0 9992 2 39136 64.8714 13.7069 0011156 290.4720 69.5208 15.16684986324584 ZACUBE-1 1 39417U 13066B 19066.94719094 .00000189 00000-0 30110-4 0 9992 2 39417 97.5691 86.1892 0059232 12.3684 347.8967 14.81064472285839 TRITON-1 1 39427U 13066M 19066.92821197 .00000160 00000-0 33215-4 0 9997 2 39427 97.6662 50.7203 0114922 134.0078 227.0671 14.67787656283265 GOMX-1 1 39430U 13066Q 19066.97243010 .00000112 00000-0 29496-4 0 9991 2 39430 97.7323 30.3692 0150191 217.8501 141.2075 14.59203823281622 LO-74 1 39440U 13066AA 19066.01718468 .00000210 00000-0 35946-4 0 9997 2 39440 97.6010 70.5859 0081685 62.3420 298.6051 14.75801536284683 AO-73 1 39444U 13066AE 19066.05876149 .00000240 00000-0 35870-4 0 9995 2 39444 97.5680 87.1896 0058275 9.6505 350.5814 14.81871955284584 SPROUT 1 39770U 14029E 19066.96458568 .00000490 00000-0 60499-4 0 9990 2 39770 97.8786 170.9867 0010486 67.0941 293.1300 14.87200136259564 DUCHIFAT-1 1 40021U 14033M 19066.76952228 .00000300 00000-0 36588-4 0 9998 2 40021 97.9224 351.0440 0013867 34.7509 325.4611 14.90538579256211 NANOSATCBR1 1 40024U 14033Q 19066.33948802 .00000336 00000-0 40999-4 0 9997 2 40024 97.9133 348.2888 0013196 39.1404 321.0765 14.89765345256050 EO-79 1 40025U 14033R 19066.27257211 .00000246 00000-0 32263-4 0 9993 2 40025 97.9069 346.1262 0013485 44.4492 315.7804 14.88876967255931 DTUSAT-2 1 40030U 14033W 19066.30777115 .00000250 00000-0 32891-4 0 9995 2 40030 97.8997 344.4878 0012913 40.2607 319.9564 14.88476151255870 EO-80 1 40032U 14033Y 19066.44370996 .00000265 00000-0 34616-4 0 9991 2 40032 97.9004 344.6247 0012859 40.4695 319.7476 14.88416431255888 ANTELSAT 1 40034U 14033AA 19066.86698589 .00000199 00000-0 36876-4 0 9996 2 40034 97.7763 298.3171 0060132 68.6587 292.1026 14.74052983253538 VELOX-1 1 40057U 14034E 19066.74747114 .00000271 00000-0 45474-4 0 9993 2 40057 98.2200 187.7101 0010671 195.3443 164.7446 14.77596697252561 DAURIA DX 1 1 40071U 14037C 19066.74228958 .00000112 00000-0 21850-4 0 9998 2 40071 98.4079 215.4667 0008141 186.4501 173.6604 14.81239664252012 UKUBE-1 1 40074U 14037F 19066.87396670 .00000359 00000-0 50334-4 0 9994 2 40074 98.4203 223.0761 0004284 169.1211 191.0105 14.83979844252400 HODOYOSHI-1 1 40299U 14070B 19066.72511953 .00000573 00000-0 27116-4 0 9997 2 40299 97.3554 148.5975 0014324 49.9329 112.5090 15.23233352240595 CHUBUSAT-1 1 40300U 14070C 19066.77425530 .00000717 00000-0 34321-4 0 9996 2 40300 97.3367 143.5230 0021498 58.7137 55.0658 15.21938168240365 QSAT-EOS 1 40301U 14070D 19067.00715569 .00001536 00000-0 62744-4 0 9998 2 40301 97.3350 146.2381 0027217 45.2448 80.2833 15.25579571240634 FIREBIRD FU3 1 40377U 15003B 19066.43288132 .00002578 00000-0 10533-3 0 9990 2 40377 99.1022 25.6470 0129569 74.5646 286.9851 15.18281220226250 FIREBIRD FU4 1 40378U 15003C 19066.81585702 .00002629 00000-0 10721-3 0 9992 2 40378 99.1026 26.1783 0129744 73.1846 288.3568 15.18289524226313 GRIFEX 1 40379U 15003D 19066.45380391 .00001535 00000-0 69283-4 0 9993 2 40379 99.1009 20.4450 0137411 90.9568 270.7406 15.15110643225958 NO-84 1 40654U 15025D 19065.24533510 .00012471 00000-0 17877-3 0 05530 2 40654 054.9868 288.5620 0146234 059.5152 302.0226 15.45180348096299 NO-83 1 40655U 15025E 19065.36173259 .00045220 00000-0 30323-3 0 06602 2 40655 054.9683 193.9735 0077054 114.0633 246.8496 15.70727004097283 DEORBITSAIL 1 40719U 15032E 19066.52561063 .00000348 00000-0 57060-4 0 9999 2 40719 97.9207 320.3802 0015091 280.7809 79.1702 14.76652965197032 NUDT-PHONESAT 1 40900U 15049B 19066.91356207 .00001979 00000-0 88731-4 0 9994 2 40900 97.4397 77.2747 0012851 177.4104 228.7706 15.22343515192026 XW-2A 1 40903U 15049E 19066.58556808 .00001771 00000-0 44278-4 0 9997 2 40903 97.3529 108.7088 0014347 151.2587 0.7917 15.41433665194368 XW-2C 1 40906U 15049H 19066.80701727 .00000819 00000-0 46631-4 0 9994 2 40906 97.4661 70.6071 0014292 189.2652 271.7086 15.15532866191415 XW-2D 1 40907U 15049J 19066.73401756 .00000895 00000-0 50396-4 0 9993 2 40907 97.4642 70.2139 0013646 186.6546 290.9305 15.15709876191415 LILACSAT-2 1 40908U 15049K 19066.92505166 .00000686 00000-0 41617-4 0 9999 2 40908 97.4765 69.4040 0015249 192.1572 197.7572 15.13718694191264 XW-2E 1 40909U 15049L 19066.97902882 .00000969 00000-0 51565-4 0 9998 2 40909 97.4593 73.0225 0013350 181.7669 235.0160 15.17552419191615 XW-2F 1 40910U 15049M 19066.72431506 .00001043 00000-0 55988-4 0 9990 2 40910 97.4624 71.9973 0014607 180.4199 295.3801 15.17067820191404 XW-2B 1 40911U 15049N 19067.01590402 .00000534 00000-0 31506-4 0 9999 2 40911 97.4662 71.1127 0013365 186.7600 234.9023 15.15641454191354 DCBB 1 40912U 15049P 19067.03300940 .00000938 00000-0 47518-4 0 9996 2 40912 97.4512 75.7282 0015480 164.3895 259.3584 15.19348804191720 TW-1C 1 40926U 15051B 19066.60872176 .00009738 00000-0 15488-3 0 9998 2 40926 97.1510 112.9976 0009716 45.1550 105.9936 15.53452803194142 TW-1A 1 40928U 15051D 19066.98040880 .00003144 00000-0 80337-4 0 9991 2 40928 97.1581 100.5335 0013541 88.1052 315.7161 15.40110785193369 IO-86 1 40931U 15052B 19065.33220913 .00000667 00000-0 39171-5 0 9999 2 40931 5.9999 80.6813 0012908 119.7905 240.3507 14.76598923185816 LQSat 1 40958U 15057A 19066.99509666 -.00000021 00000-0 44148-5 0 9996 2 40958 97.9099 138.9125 0017403 206.3905 153.6397 14.73068315183688 AO-85 1 40967U 15058D 19065.51396881 .00000306 00000-0 49225-4 0 06191 2 40967 064.7771 114.7360 0210223 234.8826 123.2373 14.75890945092368 ATHENOXAT-1 1 41168U 15077C 19065.79649502 .00002137 00000-0 78832-4 0 9998 2 41168 14.9836 257.3463 0011759 87.7467 18.9279 15.13376544178219 ChubuSat-2 1 41338U 16012B 19067.02221550 .00000314 00000-0 17693-4 0 9997 2 41338 31.0034 77.2233 0013835 166.3806 193.7205 15.00103038167480 ChubuSat-3 1 41339U 16012C 19066.47156019 .00000332 00000-0 19024-4 0 9993 2 41339 31.0100 78.9533 0013352 168.3753 191.7190 15.00281581167394 Horyu-4 1 41340U 16012D 19065.38175684 .00000456 00000-0 27929-4 0 9993 2 41340 31.0053 78.2730 0014068 173.9969 186.0837 15.01183146167328 OUFTI-1 1 41458U 16025C 19066.97682386 .00000692 00000-0 39894-4 0 9991 2 41458 98.1063 148.6156 0167054 342.8186 16.7437 15.05458733157122 [email protected] 1 41459U 16025D 19066.96977737 .00001292 00000-0 70634-4 0 9992 2 41459 98.1064 148.3282 0168446 343.8748 15.7158 15.05131723157094 AAUSAT4 1 41460U 16025E 19067.00231854 .00001613 00000-0 85622-4 0 9993 2 41460 98.0999 149.3630 0158478 337.5111 21.9171 15.06876799157205 LO-87 1 41557U 16033B 19066.97028126 .00001245 00000-0 49840-4 0 9993 2 41557 97.4206 155.0843 0012526 304.5755 55.4302 15.26924439154412 NuSat2 1 41558U 16033C 19066.87064105 .00001246 00000-0 47130-4 0 9991 2 41558 97.4228 155.7017 0011612 307.4721 52.5462 15.28820914154428 Lapan A3 1 41603U 16040E 19066.92940539 .00000053 00000-0 56468-5 0 9990 2 41603 97.3753 128.1010 0014713 44.3911 55.5344 15.19673537150134 Swayam 1 41607U 16040J 19066.98264883 .00001393 00000-0 62145-4 0 9997 2 41607 97.3785 130.8954 0014472 38.6528 321.5741 15.22976980150243 Pratham 1 41783U 16059A 19066.93972731 .00000042 00000-0 17463-4 0 9998 2 41783 98.0813 128.7213 0033197 349.4151 10.6348 14.62976116130524 AlSat 1N 1 41789U 16059G 19066.94748994 .00000064 00000-0 21268-4 0 9999 2 41789 98.0839 130.5031 0027408 340.5950 19.4212 14.64220326130618 ScatSat 1 41790U 16059H 19066.89479473 .00000003 00000-0 11938-4 0 9994 2 41790 98.2240 114.3752 0018368 6.3515 353.7910 14.50891647129428 TY-1 1 41844U 16066D 19066.69877292 .00001484 00000-0 64044-4 0 9991 2 41844 97.4064 75.2945 0014794 183.7064 304.5641 15.24012493129005 Pegasus-1 1 41846U 16066F 19065.75265514 .00000202 00000-0 41220-4 0 9995 2 41846 98.7258 104.2293 0367859 187.1390 172.4474 14.37501909121622 CAS-2T 1 41847U 16066G 19066.55814243 .00000020 00000-0 13452-4 0 9998 2 41847 98.7205 105.5689 0366127 181.5556 178.4523 14.37961289122170 EO-88 1 42017U 17008BX 19066.70523457 .00001423 00000-0 59560-4 0 9994 2 42017 97.4148 134.8207 0006850 158.8335 201.3188 15.25199829114220 SOMP2 1 42701U 98067LJ 19066.38625497 .00408120 89917-4 51921-3 0 9994 2 42701 51.6278 70.1810 0004878 82.8302 277.3265 16.06785720103639 PHOENIX 1 42706U 98067LP 19066.27332417 .00086451 00000-0 31788-3 0 9994 2 42706 51.6250 80.8287 0003530 70.1652 289.9733 15.87524960103401 ZA-AeroSat 1 42713U 98067LU 19066.49574113 .00063168 00000-0 26029-3 0 9999 2 42713 51.6314 85.4232 0003904 71.1626 288.9801 15.85304139103023 NJUST-1 1 42722U 98067MB 19067.05344711 .00048749 00000-0 24214-3 0 9993 2 42722 51.6363 87.6838 0003708 105.6210 283.2217 15.81446520102112 LO-90 1 42725U 98067ME 19067.01458330 .00264234 41018-4 46494-3 0 9996 2 42725 51.6296 72.1350 0004954 77.8235 312.7156 16.01501514102229 nSIGHT1 1 42726U 98067MF 19066.55004678 .00015269 00000-0 14427-3 0 9992 2 42726 51.6368 114.6962 0004602 127.2786 232.8630 15.67223228101628 SNUSAT 1B 1 42727U 98067MG 19066.88423441 .00262046 39704-4 51542-3 0 9995 2 42727 51.6236 73.4814 0005778 85.4333 274.7337 15.99565372102151 SUSat 1 42730U 98067MK 19067.01060689 .00426121 95569-4 58715-3 0 9992 2 42730 51.6241 69.0918 0005024 82.2601 277.8981 16.05498879102068 Aoxiang-1 1 42735U 98067MQ 19066.97706983 .00053956 00000-0 24933-3 0 9994 2 42735 51.6303 86.1924 0003794 116.5346 326.4512 15.82955199103258 BeEagleSat 1 42736U 98067MR 19067.02288465 .00119129 16359-4 38278-3 0 9992 2 42736 51.6275 77.5481 0003875 100.5013 259.6430 15.90788984102062 CAS-4B 1 42759U 17034B 19066.97612834 .00000154 00000-0 23019-4 0 9993 2 42759 43.0178 74.8849 0012012 320.9207 128.0198 15.09500106 95315 CAS-4A 1 42761U 17034D 19066.94289611 .00000347 00000-0 34783-4 0 9990 2 42761 43.0178 74.6705 0012415 322.5144 117.7083 15.09578052 95304 UCLSat 1 42765U 17036A 19066.68712346 .00001168 00000-0 53385-4 0 9994 2 42765 97.3651 126.8395 0010374 226.0461 133.9920 15.22473836 94794 NIUSat 1 42766U 17036B 19066.54550977 .00000872 00000-0 42458-4 0 9990 2 42766 97.3651 125.3755 0014800 217.0101 143.0115 15.20889564 94557 LituanicaSAT 2 1 42768U 17036D 19066.92656235 .00001813 00000-0 81420-4 0 9996 2 42768 97.3680 126.6362 0014418 215.9545 144.0722 15.22355875 94676 Aalto 1 1 42775U 17036L 19066.78620548 .00000752 00000-0 36770-4 0 9995 2 42775 97.3639 125.9144 0013093 215.7561 144.2799 15.21155346 94566 URSA MAIOR 1 42776U 17036M 19066.09768196 .00000762 00000-0 37109-4 0 9990 2 42776 97.3648 125.3567 0012869 218.1995 141.8330 15.21273357 94464 Max Valier Sat 1 42778U 17036P 19066.17096957 .00000815 00000-0 38891-4 0 9998 2 42778 97.3682 126.0548 0011398 221.6345 138.4025 15.21799695 94499 Pegasus 1 42784U 17036V 19066.16903056 .00001025 00000-0 47565-4 0 9993 2 42784 97.3656 126.1857 0010905 228.6280 131.4019 15.22238181 94517 NUDATSat 1 42787U 17036Y 19066.95078751 .00001381 00000-0 61519-4 0 9998 2 42787 97.3693 127.4693 0009830 232.6833 127.3533 15.23076011 94504 SUCHAI 1 1 42788U 17036Z 19066.39989640 .00001278 00000-0 57942-4 0 9995 2 42788 97.3658 126.6442 0010512 226.8262 133.2097 15.22607201 94634 SKCUBE 1 42789U 17036AA 19065.62089176 .00001187 00000-0 54152-4 0 9995 2 42789 097.3657 125.8426 0010323 229.9222 130.1111 15.22524999094430 VZLUSAT 1 1 42790U 17036AB 19065.62386012 .00001572 00000-0 69615-4 0 9994 2 42790 097.3669 126.1716 0009952 229.0388 130.9988 15.23082933094451 VENTA 1 1 42791U 17036AC 19065.59639112 .00001196 00000-0 54483-4 0 9992 2 42791 097.3656 125.8689 0009941 230.5021 129.5338 15.22549257094428 Robusta 1B 1 42792U 17036AD 19066.15434562 .00001157 00000-0 52601-4 0 9995 2 42792 97.3655 126.4868 0009919 228.4038 131.6350 15.22688529 94539 D-SAT 1 42794U 17036AF 19066.12627675 .00000177 00000-0 20578-4 0 9992 2 42794 97.5548 115.3051 0128047 126.4218 234.8889 14.91032084 92902 BIRD-J 1 42820U 98067MU 19066.28600530 .00095353 00000-0 32511-3 0 9992 2 42820 51.6279 86.1922 0004332 66.6121 293.5339 15.89003034 95348 BIRD-G 1 42821U 98067MV 19066.29495428 .00070417 00000-0 28305-3 0 9992 2 42821 51.6241 89.2448 0004114 61.1378 299.0039 15.85775051 95289 BIRD-M 1 42822U 98067MW 19066.29465370 .00083527 00000-0 30858-3 0 9998 2 42822 51.6296 87.8004 0004221 67.5123 292.6329 15.87438704 95306 BIRD-B 1 42823U 98067MX 19066.11662990 .00090560 00000-0 32125-3 0 9991 2 42823 51.6267 88.0929 0005135 74.6081 285.5491 15.88222724 95283 BIRD-N 1 42824U 98067MY 19066.15371591 .00083890 00000-0 31458-3 0 9996 2 42824 51.6303 89.1754 0004754 80.7522 279.4020 15.87130078 95264 TechnoSat 1 42829U 17042E 19066.52649467 .00000264 00000-0 32162-4 0 9994 2 42829 97.5763 323.6252 0015396 47.5724 312.6794 14.90931057 89569 TOMSK-TPU 120 1 42910U 98067MZ 19066.95457006 .00029507 00000-0 19675-3 0 9998 2 42910 51.6349 101.1853 0004974 108.7685 323.9381 15.75099889 88796 TANYUSHA 1 1 42911U 98067NA 19066.95237282 .00046723 00000-0 25324-3 0 9998 2 42911 51.6286 95.8985 0005011 100.3888 328.7991 15.79549150 88849 TANYUSHA 2 1 42912U 98067NB 19066.50868721 .00038409 00000-0 22994-3 0 9990 2 42912 51.6347 101.2099 0003743 98.1009 15.3825 15.77427974 88757 TNS 0-2 1 42914U 98067ND 19066.17990279 .00030851 00000-0 20449-3 0 9995 2 42914 51.6337 106.0049 0004045 102.0219 258.1234 15.75217244 88655 QIKCOM-1 1 42983U 98067NF 19066.46594940 .00003077 00000-0 46758-4 0 9990 2 42983 51.6398 138.1772 0004547 96.9783 263.1727 15.58058981 77249 AO-91 1 43017U 17073E 19066.79545450 .00000415 00000-0 37521-4 0 9996 2 43017 97.7221 352.1944 0259717 133.2353 229.0864 14.78406764 70054 EcAMSat 1 43019U 98067NG 19066.57630212 .00005173 00000-0 69209-4 0 9991 2 43019 51.6401 134.4466 0005228 75.9334 284.2240 15.59917142159621 PICSAT 1 43132U 18004X 19066.18621085 .00001184 00000-0 52964-4 0 9993 2 43132 97.5001 134.1638 0008279 254.7444 105.2877 15.23279035 63746 AO-92 1 43137U 18004AC 19066.69801167 .00000934 00000-0 42497-4 0 9997 2 43137 97.4994 134.6835 0007799 254.8197 105.2177 15.23233829 63819 TianYi 2 1 43155U 18008A 19066.97236321 .00000371 00000-0 26024-4 0 9999 2 43155 97.4964 141.6357 0016711 322.9462 143.1543 15.10960479 62315 Zhou Enlai 1 43156U 18008B 19066.98500823 .00000545 00000-0 36923-4 0 9994 2 43156 97.5014 141.5628 0013447 321.1909 142.7359 15.10456440 62298 TianYi 6 1 43158U 18008D 19066.68111563 .00000900 00000-0 59081-4 0 9997 2 43158 97.4977 140.8604 0013050 319.3201 193.4767 15.10085878 62218 S-Net G 1 43186U 18014G 19066.72967461 -.00000214 00000-0 -13650-4 0 9998 2 43186 97.7156 336.6478 0011079 357.4560 2.6603 14.96589464 59731 S-Net H 1 43187U 18014H 19066.72950406 -.00000221 00000-0 -14263-4 0 9999 2 43187 97.7155 336.6386 0011074 357.3842 2.7320 14.96589349 59735 S-Net J 1 43188U 18014J 19066.72928892 -.00000234 00000-0 -15451-4 0 9998 2 43188 97.7157 336.6516 0011068 357.5067 2.6098 14.96589920 59733 S-Net K 1 43189U 18014K 19066.72959717 -.00000213 00000-0 -13613-4 0 9994 2 43189 97.7154 336.6366 0011060 357.3566 2.7595 14.96588978 58282 FMN 1 1 43192U 18015A 19066.58060741 .00002216 00000-0 94718-4 0 9991 2 43192 97.3826 195.7705 0014828 299.9450 60.0309 15.23823610 60613 Shaonian Xing 1 43199U 18015H 19067.02374457 .00001510 00000-0 64242-4 0 9995 2 43199 97.3611 195.5402 0016074 311.1288 48.8556 15.24448882 60720 1KUNS-PF 1 43466U 98067NP 19066.48631643 .00014173 00000-0 16281-3 0 9997 2 43466 51.6381 136.8127 0001331 33.7960 326.3119 15.62324067 46767 UBAKUSAT 1 43467U 98067NQ 19066.57480088 .00009425 00000-0 11893-3 0 9991 2 43467 51.6378 138.1486 0003081 37.5100 322.6108 15.60340826 46765 Irazu 1 43468U 98067NR 19066.42629383 .00018897 00000-0 20249-3 0 9997 2 43468 51.6377 135.6558 0001432 25.7890 334.3176 15.63867525146769 EnduroSat One 1 43551U 98067NZ 19066.45246093 .00011390 00000-0 14497-3 0 9995 2 43551 51.6386 141.0742 0005870 110.7485 249.4137 15.59857197 36943 EQUISat 1 43552U 98067PA 19066.43367991 .00009573 00000-0 12610-3 0 9990 2 43552 51.6393 141.7051 0006304 111.3873 248.7793 15.59164621 36890 UiTMSat 1 1 43589U 98067PD 19065.60119698 .00011285 00000-0 14854-3 0 9992 2 43589 51.6371 146.6248 0005443 116.0371 244.1182 15.58973779 32491 Maya 1 1 43590U 98067PE 19065.59771071 .00011406 00000-0 14993-3 0 9990 2 43590 51.6379 146.6042 0005572 117.0241 243.1321 15.58997816 32428 Bhutan 1 1 43591U 98067PF 19065.59195805 .00011356 00000-0 14901-3 0 9999 2 43591 51.6383 146.5718 0005717 117.3437 242.8138 15.59048363 32421 SiriusSat 1 1 43595U 98067PG 19066.42864611 .00010317 00000-0 13916-3 0 9995 2 43595 51.6372 143.1513 0003951 72.8485 287.2940 15.58435945 31726 SiriusSat 2 1 43596U 98067PH 19066.44832501 .00009598 00000-0 13068-3 0 9998 2 43596 51.6382 143.3040 0004533 75.0648 285.0846 15.58277360 31724 Tanusha-3 1 43597U 98067PJ 19066.46034622 .00012403 00000-0 16170-3 0 9995 2 43597 51.6367 142.5927 0003770 85.3502 274.7921 15.59126632 31734 SurfSat 1 43614U 18070B 19066.48710473 .00002494 00000-0 68837-4 0 9995 2 43614 93.0369 321.0542 0015938 354.2678 5.8390 15.37039398 26559 CP-7 DAVE 1 43615U 18070C 19066.16310115 .00002147 00000-0 59389-4 0 9997 2 43615 93.0373 320.9209 0016003 355.2138 4.8960 15.36991312 26508 ELFIN-B 1 43616U 18070D 19066.46535260 .00003431 00000-0 93538-4 0 9992 2 43616 93.0331 320.9811 0017107 356.8432 3.2710 15.37383805 26556 ELFIN-A 1 43617U 18070E 19065.94079760 .00003251 00000-0 88595-4 0 9990 2 43617 093.0388 320.8987 0016065 356.2041 003.9087 15.37416905026477 STARS-Me Mother 1 43640U 98067PQ 19065.61972813 .00007150 00000-0 10491-3 0 9996 2 43640 051.6389 149.0090 0006029 065.0124 295.1493 15.56707518023507 CubeBel 1 1 43666U 18083E 19066.81728541 .00000870 00000-0 46916-4 0 9998 2 43666 97.5296 91.9579 0015350 179.3428 267.4581 15.17343473 19688 Changshagaoxin 1 43669U 18083H 19066.99537370 .00000845 00000-0 46665-4 0 9991 2 43669 97.5158 91.7502 0011343 168.9728 191.1756 15.16605894 19669 Ten-Koh 1 43677U 18084G 19065.74349804 .00000623 00000-0 70112-4 0 9994 2 43677 097.8390 180.2315 0014381 263.4108 096.5479 14.90132244019130 Diwata-2 1 43678U 18084H 19066.96418875 .00000367 00000-0 42266-4 0 9999 2 43678 97.8386 181.7339 0008415 285.7739 74.2489 14.91533490 19331 IRVINE 01 1 43693U 18088D 19066.99224414 .00002159 00000-0 95540-4 0 9991 2 43693 85.0378 25.9031 0017411 203.6742 156.3700 15.20908794 17753 QO-100 1 43700U 18090A 19066.87623933 .00000136 00000-0 00000 0 0 9994 2 43700 0.0155 155.1420 0001341 223.6617 127.7769 1.00272085 1264 Reaktor Hello World 1 43743U 18096AA 19066.92062005 .00001132 00000-0 46284-4 0 9996 2 43743 97.4714 136.9896 0017721 344.0216 132.4358 15.26341577 15053 MinXSS-2 1 43758U 18099A 19066.16936879 .00000064 00000-0 11084-4 0 9993 2 43758 97.7552 139.4014 0014563 316.9777 43.0305 14.95321885 13965 OBJECT D 1 43761U 18099D 19066.92580424 .00000023 00000-0 73961-5 0 9990 2 43761 97.7572 140.1372 0013359 313.5997 46.4114 14.94976374 14061 AO-95 1 43770U 18099N 19066.14144841 .00000603 00000-0 60852-4 0 9991 2 43770 97.7554 139.2880 0013577 323.6289 36.4007 14.94689343 13956 OBJECT P 1 43771U 18099P 19066.14093537 .00000621 00000-0 62509-4 0 9998 2 43771 97.7553 139.2879 0013581 323.5908 36.4387 14.94699509 13941 RANGE-B 1 43772U 18099Q 19065.66843289 .00000587 00000-0 59230-4 0 9990 2 43772 097.7603 138.8881 0012964 311.4048 048.6057 14.94770043013875 RANGE-A 1 43773U 18099R 19066.13741745 .00000439 00000-0 45711-4 0 9993 2 43773 97.7501 139.2360 0012342 310.3377 49.6765 14.94745644 13947 OBJECT T 1 43775U 18099T 19066.19619371 .00000169 00000-0 20839-4 0 9994 2 43775 97.7560 139.3859 0013555 314.2547 45.7560 14.94873684 13943 OBJECT U 1 43776U 18099U 19066.19621394 .00000126 00000-0 16876-4 0 9992 2 43776 97.7561 139.3851 0013595 314.3655 45.6451 14.94868963 13944 OBJECT W 1 43778U 18099W 19066.13515081 .00000461 00000-0 47644-4 0 9992 2 43778 97.7459 139.1869 0012961 320.1320 39.8948 14.94789053 13521 OBJECT X 1 43779U 18099X 19066.19620228 .00000149 00000-0 19017-4 0 9995 2 43779 97.7560 139.3855 0013563 314.2962 45.7145 14.94871057 13944 MOVE-II 1 43780U 18099Y 19066.19403361 .00000370 00000-0 39141-4 0 9990 2 43780 97.7538 139.3508 0012517 321.3719 38.6605 14.94935328 13947 SNUSat 2 1 43782U 18099AA 19066.19005940 .00000035 00000-0 84686-5 0 9996 2 43782 97.7548 139.3737 0011650 310.3234 49.6968 14.94980341 13951 SnugLite 1 43784U 18099AC 19066.18542839 -.00000075 00000-0 -15347-5 0 9994 2 43784 97.7514 139.3357 0014096 318.4175 41.5973 14.95054941 13961 ITASat 1 1 43786U 18099AE 19066.85355731 -.00000077 00000-0 -16843-5 0 9997 2 43786 97.7566 140.0665 0014172 314.8371 45.1697 14.95071156 14066 OBJECT AH 1 43789U 18099AH 19066.16071637 .00000432 00000-0 44292-4 0 9995 2 43789 97.7550 139.4045 0014687 316.1154 43.8899 14.95462363 13658 EAGLET 1 1 43790U 18099AJ 19066.16027086 .00000259 00000-0 28645-4 0 9997 2 43790 97.7561 139.4242 0012458 324.2698 35.7688 14.95452203 13656 ESEO 1 43792U 18099AL 19066.15844344 .00000258 00000-0 28526-4 0 9999 2 43792 97.7543 139.4077 0012269 321.3876 38.6467 14.95474788 13716 CSIM 1 43793U 18099AM 19066.15473553 .00000780 00000-0 75462-4 0 9991 2 43793 97.7497 139.3417 0011761 318.2651 41.7672 14.95569821 13686 Astrocast 0.1 1 43798U 18099AS 19066.21234716 .00000591 00000-0 58262-4 0 9998 2 43798 97.7546 139.4929 0011043 302.4716 57.5437 14.95689519 13956 OBJECT AV 1 43801U 18099AV 19066.98114696 -.00000070 00000-0 -10962-5 0 9991 2 43801 97.7509 140.1292 0013096 307.2319 52.7706 14.95174979 14073 JO-97 1 43803U 18099AX 19066.51214476 -.00000143 00000-0 -77415-5 0 9996 2 43803 97.7525 139.6886 0014175 317.1740 42.8375 14.95187354 14008 Suomi 100 1 43804U 18099AY 19066.98024102 -.00000154 00000-0 -86647-5 0 9992 2 43804 97.7523 140.1510 0014230 315.5784 44.4294 14.95190932 14082 Al Farabi 2 1 43805U 18099AZ 19066.97874398 -.00000066 00000-0 -66358-6 0 9992 2 43805 97.7524 140.1534 0014254 315.6835 44.3243 14.95225513 14081 OBJECT BA 1 43806U 18099BA 19066.97893953 -.00000249 00000-0 -17360-4 0 9991 2 43806 97.7524 140.1507 0013930 313.9657 46.0414 14.95203778 13778 OBJECT BD 1 43809U 18099BD 19066.97060322 -.00000103 00000-0 -40056-5 0 9998 2 43809 97.7542 140.1864 0014226 317.3978 42.6138 14.95339252 13772 OBJECT BE 1 43810U 18099BE 19066.97055780 -.00000147 00000-0 -80017-5 0 9991 2 43810 97.7453 140.0819 0013371 312.1005 47.9078 14.95335595 13629 PWSat 2 1 43814U 18099BJ 19066.56071388 .00013145 00000-0 11604-2 0 9995 2 43814 97.7708 139.8680 0005609 248.2014 111.8612 14.96496733 13417 OBJECT BS 1 43822U 18099BS 19065.84164932 -.00000165 00000-0 -97418-5 0 9992 2 43822 097.7551 139.0551 0014312 314.2828 045.7217 14.94989987007504 CHOMPTT 1 43855U 18104G 19065.96744885 .00000042 00000-0 00000 0 0 9996 2 43855 85.0373 125.0142 0017314 344.6314 15.4454 15.22175356 12248 ISAT 1 43879U 18111D 19066.51632793 -.00000043 00000-0 13860-5 0 9992 2 43879 97.7248 335.9842 0013801 15.3948 344.7690 14.95906671 8523 UWE-4 1 43880U 18111E 19066.97298449 .00000446 00000-0 44711-4 0 9994 2 43880 97.7258 336.4701 0012916 16.0808 344.0821 14.96152399 8592 Sparrow 1 43881U 18111F 19066.16839919 .00000652 00000-0 62895-4 0 9991 2 43881 97.7263 335.6839 0013044 17.6145 342.5526 14.96195994 8476 Lume 1 1 43908U 18111AJ 19066.99288109 .00001144 00000-0 49692-4 0 9998 2 43908 97.2974 335.0136 0021827 358.5690 1.5482 15.24097940 10801 FO-98 1 43933U 19003B 19066.56770098 .00000753 00000-0 36352-4 0 9997 2 43933 97.2967 127.3887 0020094 88.2631 17.7475 15.21465862 7371 FO-99 1 43937U 19003F 19066.90667226 .00001207 00000-0 53354-4 0 9993 2 43937 97.2914 127.8118 0026676 76.1077 42.3975 15.23296418 7438 Delphini 1 1 44030U 98067PW 19065.46441724 .00007915 00000-0 12546-3 0 9997 2 44030 051.6392 151.7198 0004715 112.4520 247.6971 15.54397462005325 MYSat 1 1 44045U 18092F 19066.24760329 .00001943 00000-0 68700-4 0 9994 2 44045 51.6415 151.6458 0012903 74.3791 285.8596 15.34387246 3354 KickSat 2 1 44046U 18092G 19066.58584895 .00175943 23451-4 41345-3 0 9990 2 44046 51.6411 140.3646 0011520 28.6582 331.5075 15.96401854 3518 /EX